Skip Page Navigation
NASA JPL Caltech
NASA Logo - Jet Propulsion Laboratory + View the NASA Portal
+ Center for Near-Earth Object Studies
JPL Home Earth Solar System Stars & Galaxies Technology
JPL Solar System Dynamics
BODIES ORBITS EPHEMERIDES TOOLS PHYSICAL DATA DISCOVERY FAQ SITE MAP
IMPORTANT: The SSD Announcement email list is now available. Major changes are coming in the near future, including possible hostname and/or URL changes. To be notified of such changes, subscribe to this email list.

Please visit this page for more details.


JPL Small-Body Database Browser
Search: [ help ]  
233111 (2005 SW162)
Classification: Main-belt Asteroid          SPK-ID: 2233111
Ephemeris | Orbit Diagram | Orbital Elements | Mission Design | Physical Parameters | Discovery Circumstances ]

[ show orbit diagram ]
Orbital Elements at Epoch 2458600.5 (2019-Apr-27.0) TDB
Reference: JPL 6 (heliocentric ecliptic J2000)
 Element Value Uncertainty (1-sigma)   Units 
e .2445093565605295 8.7253e-08  
a 2.400737378926498 2.3446e-08 au
q 1.813734627134368 2.2008e-07 au
i 5.917326624109177 8.9002e-06 deg
node 93.33718924700857 6.833e-05 deg
peri 262.5123272942932 7.1007e-05 deg
M 236.4788133682477 1.9068e-05 deg
tp 2459066.680778547969
(2020-Aug-05.18077855)
7.5767e-05 TDB
period 1358.674449733046
3.72
1.9904e-05
5.449e-08
d
yr
n .2649641347643897 3.8815e-09 deg/d
Q 2.987740130718628 2.9179e-08 au
  Orbit Determination Parameters
   # obs. used (total)      119  
   data-arc span      5946 days (16.28 yr)  
   first obs. used      2003-01-29  
   last obs. used      2019-05-11  
   planetary ephem.      DE431  
   SB-pert. ephem.      SB431-N16  
   condition code      0  
   norm. resid. RMS      .58113  
   source      ORB  
   producer      Otto Matic  
   solution date      2019-May-30 08:31:59  

Additional Information
 Earth MOID = .819943 au 
 Jupiter MOID = 2.47411 au 
 T_jup = 3.478 
[ show covariance matrix ]

Ephemeris | Orbit Diagram | Orbital Elements | Mission Design | Physical Parameters | Discovery Circumstances ]

Physical Parameter Table
Parameter Symbol Value Units Sigma Reference Notes
absolute magnitude H 17.2   n/a MPO433522  
diameter diameter 1.815 km 0.264 urn:nasa:pds:neowise_diameters_albedos::2.0[mainbelt] (http://adsabs.harvard.edu/abs/2011ApJ...741...68M)  
geometric albedo albedo 0.071   0.030 urn:nasa:pds:neowise_diameters_albedos::2.0[mainbelt] (http://adsabs.harvard.edu/abs/2011ApJ...741...68M)  

233111 (2005 SW162)          Discovered 2005-Sep-27 by LINEAR at Socorro
Reference: 20100228/Numbers.arcLast Updated: 2010-03-03
Ephemeris | Orbit Diagram | Orbital Elements | Mission Design | Physical Parameters | Discovery Circumstances ]
ABOUT SSD CREDITS/AWARDS PRIVACY/COPYRIGHT GLOSSARY LINKS
FirstGov 2019-Dec-09 21:35 UT
(server date/time)  
NASA Home Page
Site Manager:   Ryan S. Park
Webmaster  Alan B. Chamberlin